This is the latest recevied weather packets stored in our database for station/object HASTNG-WX. If no packets are shown the sender has not sent any weather packets the latest 10 day(s).
| Time | Temp. | Humidity | Pressure | Rain* | Wind** | Luminosity | Snow |
|---|---|---|---|---|---|---|---|
| 1777821330 | 12.78° C | 54% | 983.3 hPa | 0 mm | - | - | - |
| 1777820460 | 12.22° C | 54% | 983.3 hPa | 0 mm | - | - | - |
| 1777819530 | 11.11° C | 53% | 983.3 hPa | 0 mm | - | - | - |
| 1777818652 | 11.67° C | 53% | 983.4 hPa | 0 mm | - | - | - |
| 1777817730 | 11.11° C | 53% | 983.4 hPa | 0 mm | - | - | - |
| 1777816862 | 10.56° C | 53% | 983.4 hPa | 0 mm | - | - | - |
| 1777815930 | 10° C | 60% | 983.8 hPa | 0 mm | - | - | - |
| 1777815046 | 9.44° C | 60% | 983.8 hPa | 0 mm | - | - | - |
| 1777814130 | 7.78° C | 60% | 983.6 hPa | 0 mm | - | - | - |
| 1777813260 | 7.22° C | 60% | 983.6 hPa | 0 mm | - | - | - |
| 1777812330 | 7.22° C | 61% | 982.9 hPa | 0 mm | - | - | - |
| 1777811451 | 7.22° C | 62% | 983.9 hPa | 0 mm | - | - | - |
| 1777810530 | 6.11° C | 62% | 983.9 hPa | 0 mm | - | - | - |
| 1777809664 | 5.56° C | 62% | 983.9 hPa | 0 mm | - | - | - |
| 1777808730 | 4.44° C | 65% | 983.7 hPa | 0 mm | - | - | - |
| 1777807848 | 3.89° C | 67% | 983 hPa | 0 mm | - | - | - |
| 1777806930 | 3.89° C | 67% | 983 hPa | 0 mm | - | - | - |
| 1777806060 | 3.33° C | 67% | 983 hPa | 0 mm | - | - | - |
| 1777805129 | 3.33° C | 65% | 982.8 hPa | 0 mm | - | - | - |
| 1777804245 | 3.33° C | 67% | 983.1 hPa | 0 mm | - | - | - |
| 1777803330 | 2.78° C | 67% | 983 hPa | 0 mm | - | - | - |
| 1777802461 | 2.78° C | 67% | 983 hPa | 0 mm | - | - | - |
| 1777801529 | 2.78° C | 64% | 983.2 hPa | 0 mm | - | - | - |
| 1777800650 | 2.78° C | 66% | 983.2 hPa | 0 mm | - | - | - |
| 1777799730 | 1.67° C | 66% | 983.1 hPa | 0 mm | - | - | - |
* Rain latest hour (hover to see other rain measurements)
** Current wind speed in m/s (hover to see current wind gust speed)